EW8714 Weather Reports


Display with metric or nautical units.
time (UTC)temp
F
wind
direction
speed
MPH
gust
MPH
rain 1hr
in
rain 24hr
in
rain mn
in
humidity
%
barometer
mb
20260507192509 67 295 10.0 21.0 0.00 0.02 0.00 29 1014.7
20260507192008 66 247 11.0 21.0 0.00 0.02 0.00 29 1014.7
20260507191511 66 266 13.0 22.0 0.00 0.02 0.00 29 1014.6
20260507191011 65 262 11.0 22.0 0.00 0.02 0.00 31 1014.7
20260507190510 66 258 12.0 19.0 0.00 0.02 0.00 30 1014.8
20260507190008 65 290 12.0 20.0 0.00 0.02 0.00 29 1014.9
20260507185507 66 281 10.0 20.0 0.00 0.11 0.00 30 1014.9
20260507185006 65 248 11.0 18.0 0.00 0.11 0.00 30 1015.0
20260507184511 65 278 9.0 16.0 0.00 0.11 0.00 33 1015.2
20260507184006 64 247 6.0 16.0 0.00 0.11 0.00 34 1015.3
20260507183506 64 334 9.0 16.0 0.00 0.11 0.00 32 1015.3
20260507183014 63 248 8.0 15.0 0.00 0.11 0.00 31 1015.3
20260507182510 63 242 9.0 15.0 0.00 0.11 0.00 31 1015.5
20260507182009 64 267 6.0 13.0 0.00 0.11 0.00 32 1015.4
20260507181509 63 250 8.0 12.0 0.00 0.11 0.00 33 1015.4
20260507181011 63 264 6.0 13.0 0.00 0.11 0.00 31 1015.4
20260507180512 63 249 6.0 13.0 0.00 0.11 0.00 34 1015.5
20260507180015 63 293 7.0 13.0 0.00 0.11 0.00 33 1015.5
20260507175513 63 278 6.0 15.0 0.00 0.21 0.00 33 1015.4
20260507175013 63 245 9.0 15.0 0.00 0.21 0.00 33 1015.5
20260507174519 63 264 8.0 14.0 0.00 0.21 0.00 34 1015.5
20260507174013 63 245 8.0 14.0 0.00 0.21 0.00 33 1015.5
20260507173511 63 246 5.0 10.0 0.00 0.21 0.00 36 1015.6
20260507173016 63 255 7.0 10.0 0.00 0.21 0.00 35 1015.7
20260507172511 63 258 7.0 12.0 0.00 0.21 0.00 35 1015.7
20260507172010 63 248 8.0 12.0 0.00 0.21 0.00 34 1015.7
20260507171514 63 264 7.0 12.0 0.00 0.21 0.00 33 1015.8
20260507171015 62 253 6.0 12.0 0.00 0.21 0.00 35 1015.8
20260507170514 62 249 7.0 12.0 0.00 0.21 0.00 34 1015.8
20260507170012 62 262 6.0 11.0 0.00 0.21 0.00 35 1015.8
20260507165512 61 274 4.0 11.0 0.00 0.27 0.00 35 1015.8
20260507165013 61 256 6.0 11.0 0.00 0.27 0.00 34 1015.8
20260507164516 61 254 7.0 11.0 0.00 0.27 0.00 34 1015.9
20260507164016 61 261 7.0 11.0 0.00 0.27 0.00 35 1016.0
20260507163516 61 240 5.0 12.0 0.00 0.27 0.00 38 1016.0
20260507163016 61 299 5.0 14.0 0.00 0.27 0.00 36 1016.0
20260507162516 62 283 9.0 14.0 0.00 0.27 0.00 34 1016.0
20260507162018 63 257 7.0 13.0 0.00 0.27 0.00 36 1016.0
20260507161518 62 221 5.0 9.0 0.00 0.27 0.00 40 1016.0
20260507161015 61 229 5.0 9.0 0.00 0.27 0.00 45 1016.1
20260507160516 59 176 5.0 9.0 0.00 0.27 0.00 44 1016.1
20260507160018 59 208 6.0 9.0 0.00 0.27 0.00 47 1016.1
20260507155520 57 214 5.0 10.0 0.00 0.32 0.00 49 1016.1
20260507155019 56 205 6.0 10.0 0.00 0.32 0.00 48 1016.1
20260507154515 55 213 6.0 9.0 0.00 0.32 0.00 51 1016.2
20260507154014 54 200 5.0 11.0 0.00 0.32 0.00 52 1016.3
20260507153513 54 181 5.0 11.0 0.00 0.32 0.00 52 1016.3
20260507153015 54 178 4.0 8.0 0.00 0.32 0.00 52 1016.4
20260507152514 53 143 2.0 6.0 0.00 0.32 0.00 53 1016.5
20260507152013 52 157 3.0 5.0 0.00 0.32 0.00 53 1016.5
20260507151519 52 175 3.0 6.0 0.00 0.32 0.00 54 1016.7
20260507151016 52 175 1.0 7.0 0.00 0.32 0.00 57 1016.6
20260507150515 51 177 5.0 8.0 0.00 0.32 0.00 55 1016.6
20260507150020 50 179 3.0 8.0 0.00 0.32 0.00 58 1016.6
20260507145519 50 184 4.0 8.0 0.00 0.34 0.00 59 1016.6
20260507145015 49 183 4.0 9.0 0.00 0.34 0.00 59 1016.6
20260507144525 49 183 3.0 9.0 0.00 0.34 0.00 59 1016.6
20260507144017 49 174 2.0 8.0 0.00 0.34 0.00 61 1016.7
20260507143515 48 188 3.0 8.0 0.00 0.34 0.00 62 1016.6
20260507143015 47 176 5.0 8.0 0.00 0.34 0.00 63 1016.5
20260507142514 46 197 4.0 7.0 0.00 0.34 0.00 64 1016.5
20260507142015 46 198 5.0 8.0 0.00 0.34 0.00 62 1016.5
20260507141514 46 196 5.0 8.0 0.00 0.34 0.00 60 1016.5
20260507141016 47 176 5.0 7.0 0.00 0.34 0.00 59 1016.5
20260507140515 47 198 4.0 7.0 0.00 0.34 0.00 58 1016.5
20260507140019 46 172 3.0 6.0 0.00 0.34 0.00 60 1016.5
20260507135521 46 171 3.0 6.0 0.00 0.35 0.00 62 1016.5
20260507135015 45 174 3.0 8.0 0.00 0.35 0.00 62 1016.6
20260507134516 45 186 3.0 8.0 0.00 0.35 0.00 63 1016.5
20260507134015 44 192 4.0 7.0 0.00 0.35 0.00 63 1016.5
20260507133516 44 193 4.0 9.0 0.00 0.35 0.00 63 1016.5
20260507133020 44 192 5.0 9.0 0.00 0.35 0.00 64 1016.5
20260507132522 43 203 5.0 9.0 0.00 0.35 0.00 64 1016.5
20260507132016 42 197 5.0 9.0 0.00 0.35 0.00 66 1016.5
20260507131525 41 200 4.0 8.0 0.00 0.35 0.00 68 1016.3
20260507131022 41 202 5.0 10.0 0.00 0.35 0.00 69 1016.3
20260507130517 40 218 5.0 10.0 0.00 0.35 0.00 69 1016.3
20260507130017 39 212 6.0 9.0 0.00 0.35 0.00 70 1016.2
20260507125519 39 203 5.0 10.0 0.00 0.35 0.00 70 1016.1
20260507125014 38 212 6.0 10.0 0.00 0.35 0.00 69 1016.1
20260507124519 38 205 5.0 10.0 0.00 0.35 0.00 69 1016.1
20260507124018 38 198 6.0 10.0 0.00 0.35 0.00 69 1016.0
20260507123517 38 200 5.0 9.0 0.00 0.35 0.00 69 1016.1
20260507123020 38 195 5.0 9.0 0.00 0.35 0.00 69 1016.1
20260507122517 38 186 5.0 9.0 0.00 0.35 0.00 69 1016.0
20260507122016 38 186 5.0 9.0 0.00 0.35 0.00 68 1015.9
20260507121516 38 193 5.0 10.0 0.00 0.35 0.00 68 1015.8
20260507121015 38 194 6.0 10.0 0.00 0.35 0.00 69 1015.8
20260507120514 37 191 5.0 9.0 0.00 0.35 0.00 70 1015.8
20260507120015 37 200 5.0 9.0 0.00 0.35 0.00 70 1015.9
20260507115515 37 181 3.0 9.0 0.00 0.35 0.00 69 1015.9
20260507115014 37 181 5.0 9.0 0.00 0.35 0.00 69 1015.9
20260507114515 37 186 5.0 11.0 0.00 0.35 0.00 69 1015.8
20260507114015 37 193 6.0 12.0 0.00 0.35 0.00 68 1015.9
20260507113514 37 193 6.0 12.0 0.00 0.35 0.00 68 1015.8
20260507113018 37 206 6.0 10.0 0.00 0.35 0.00 69 1015.8
20260507112517 37 200 7.0 11.0 0.00 0.35 0.00 69 1015.8
20260507112018 37 198 6.0 11.0 0.00 0.35 0.00 70 1015.7
20260507111518 37 202 6.0 9.0 0.00 0.35 0.00 70 1015.6
20260507111017 37 211 6.0 9.0 0.00 0.35 0.00 69 1015.7
20260507110516 37 200 5.0 9.0 0.00 0.35 0.00 69 1015.8
20260507110018 37 196 6.0 9.0 0.00 0.35 0.00 69 1015.8
20260507105515 37 196 6.0 9.0 0.00 0.35 0.00 70 1015.8
20260507105015 37 198 5.0 10.0 0.00 0.35 0.00 69 1015.8
20260507104520 37 186 5.0 10.0 0.00 0.35 0.00 69 1015.9
20260507104020 38 202 7.0 11.0 0.00 0.35 0.00 68 1015.8
20260507103518 38 205 7.0 11.0 0.00 0.35 0.00 68 1015.7
20260507103022 38 210 7.0 10.0 0.00 0.35 0.00 67 1015.8
20260507102520 38 210 6.0 11.0 0.00 0.35 0.00 67 1015.8
20260507102017 37 202 7.0 11.0 0.00 0.35 0.00 68 1015.8
20260507101533 37 201 7.0 11.0 0.00 0.35 0.00 69 1015.9
20260507101023 37 191 6.0 11.0 0.00 0.35 0.00 70 1016.1
20260507100519 37 212 5.0 8.0 0.00 0.35 0.00 71 1016.1
20260507100022 36 195 4.0 7.0 0.00 0.35 0.00 72 1016.1
20260507095516 36 184 4.0 7.0 0.00 0.35 0.00 72 1016.1
20260507095020 36 184 4.0 7.0 0.00 0.35 0.00 73 1016.2
20260507094518 36 176 4.0 7.0 0.00 0.35 0.00 73 1016.3
20260507094015 36 186 4.0 7.0 0.00 0.35 0.00 73 1016.3
20260507093515 36 186 4.0 7.0 0.00 0.35 0.00 72 1016.2
20260507093020 36 182 3.0 8.0 0.00 0.35 0.00 72 1016.2
20260507092519 37 181 3.0 9.0 0.00 0.35 0.00 71 1016.3
20260507092016 37 188 4.0 10.0 0.00 0.35 0.00 71 1016.3
20260507091519 37 207 6.0 12.0 0.00 0.35 0.00 72 1016.3
20260507091018 37 191 6.0 12.0 0.00 0.35 0.00 72 1016.2
20260507090519 36 214 7.0 11.0 0.00 0.35 0.00 74 1016.3
20260507090018 36 198 6.0 10.0 0.00 0.35 0.00 75 1016.3
20260507085516 36 196 7.0 10.0 0.00 0.35 0.00 76 1016.3
20260507085015 35 209 6.0 10.0 0.00 0.35 0.00 76 1016.2
20260507084518 35 207 6.0 11.0 0.00 0.35 0.00 77 1016.2
20260507084018 35 198 5.0 11.0 0.00 0.35 0.00 78 1016.3
20260507083518 35 192 5.0 8.0 0.00 0.35 0.00 78 1016.2
20260507083020 35 193 5.0 9.0 0.00 0.35 0.00 79 1016.2
20260507082522 35 200 5.0 9.0 0.00 0.35 0.00 79 1016.3
20260507082017 35 198 4.0 8.0 0.00 0.35 0.00 79 1016.3
20260507081522 35 195 5.0 8.0 0.00 0.35 0.00 79 1016.3
20260507081020 35 179 5.0 9.0 0.00 0.35 0.00 79 1016.5
20260507080520 35 176 4.0 10.0 0.00 0.35 0.00 79 1016.5
20260507080021 35 190 5.0 10.0 0.00 0.35 0.00 80 1016.5
20260507075526 35 196 5.0 10.0 0.00 0.35 0.00 80 1016.6
20260507075020 35 193 6.0 10.0 0.00 0.35 0.00 81 1016.7
20260507074520 35 200 6.0 9.0 0.00 0.35 0.00 82 1016.8
20260507074020 35 201 5.0 9.0 0.00 0.35 0.00 82 1016.7
20260507073522 35 207 6.0 10.0 0.00 0.35 0.00 82 1016.8
20260507073021 35 189 6.0 10.0 0.00 0.35 0.00 83 1016.8
20260507072521 35 199 6.0 10.0 0.00 0.35 0.00 83 1016.9
20260507072018 35 209 7.0 10.0 0.00 0.35 0.00 83 1017.0
20260507071519 35 193 6.0 10.0 0.00 0.35 0.00 84 1017.0
20260507071020 35 195 6.0 10.0 0.00 0.35 0.00 84 1017.0
20260507070522 35 192 6.0 9.0 0.00 0.35 0.00 84 1017.0
20260507070029 35 187 5.0 10.0 0.00 0.35 0.00 84 1017.1
20260507065522 35 200 5.0 10.0 0.00 0.35 0.00 84 1017.1
20260507065020 35 202 6.0 9.0 0.00 0.35 0.00 84 1017.2
20260507064533 35 193 6.0 10.0 0.00 0.35 0.00 84 1017.1
20260507064021 35 194 6.0 10.0 0.00 0.35 0.00 84 1017.1
20260507063524 35 183 5.0 9.0 0.00 0.35 0.00 85 1017.1
20260507063028 35 189 6.0 9.0 0.00 0.35 0.00 85 1017.2
20260507062520 34 206 5.0 9.0 0.00 0.35 0.00 85 1017.2
20260507062020 34 208 6.0 11.0 0.00 0.35 0.00 85 1017.3
20260507061524 35 202 7.0 11.0 0.00 0.35 0.00 85 1017.2
20260507061026 35 209 7.0 10.0 0.00 0.35 0.00 85 1017.2
20260507060521 35 191 7.0 10.0 0.00 0.35 0.00 85 1017.3
20260507060025 35 188 6.0 10.0 0.00 0.35 0.00 85 1017.3
20260507055521 35 207 7.0 10.0 0.00 0.35 0.35 86 1017.3
20260507055020 34 200 6.0 10.0 0.00 0.35 0.35 86 1017.3
20260507054525 34 196 6.0 8.0 0.00 0.35 0.35 86 1017.4
20260507054020 34 188 3.0 7.0 0.00 0.35 0.35 86 1017.5
20260507053519 34 188 3.0 7.0 0.00 0.35 0.35 86 1017.6
20260507053024 34 184 3.0 6.0 0.00 0.35 0.35 87 1017.7
20260507052523 33 182 3.0 6.0 0.00 0.35 0.35 87 1017.8
20260507052023 33 179 2.0 5.0 0.00 0.35 0.35 88 1017.9
20260507051521 32 177 2.0 3.0 0.00 0.35 0.35 87 1017.9
20260507051021 32 177 0.0 0.0 0.00 0.35 0.35 87 1018.0
20260507050520 32 177 0.0 0.0 0.00 0.35 0.35 87 1018.1
20260507050034 32 177 0.0 0.0 0.00 0.35 0.35 86 1018.1
20260507045524 32 177 0.0 0.0 0.00 0.35 0.35 86 1018.2
20260507045024 33 177 0.0 0.0 0.00 0.35 0.35 86 1018.2
20260507044533 33 176 0.0 0.0 0.00 0.35 0.35 87 1018.2
20260507044022 33 177 0.0 0.0 0.00 0.35 0.35 87 1018.2
20260507043523 33 177 0.0 0.0 0.00 0.35 0.35 87 1018.3
20260507043003 32 177 0.0 0.0 0.00 0.35 0.35 86 1018.2
20260507042504 33 177 0.0 0.0 0.00 0.35 0.35 86 1018.3
20260507042002 32 177 0.0 0.0 0.00 0.35 0.35 86 1018.2
20260507041520 32 177 0.0 0.0 0.00 0.35 0.35 86 1018.3
20260507041006 32 177 0.0 0.0 0.00 0.35 0.35 85 1018.2
20260507040506 33 177 0.0 0.0 0.00 0.35 0.35 84 1018.2
20260507040006 33 177 0.0 0.0 0.00 0.35 0.35 84 1018.4
20260507035505 33 177 0.0 0.0 0.00 0.35 0.35 84 1018.5
20260507035005 33 177 0.0 0.0 0.00 0.35 0.35 83 1018.5
20260507034515 34 177 0.0 0.0 0.00 0.35 0.35 83 1018.6
20260507034007 34 177 0.0 0.0 0.00 0.35 0.35 82 1018.5
20260507033508 34 176 0.0 0.0 0.00 0.35 0.35 82 1018.5
20260507033008 34 177 0.0 0.0 0.00 0.35 0.35 81 1018.5
20260507032508 35 177 0.0 0.0 0.00 0.35 0.35 80 1018.4
20260507032006 35 177 0.0 0.0 0.00 0.35 0.35 80 1018.4
20260507031529 35 177 0.0 0.0 0.00 0.35 0.35 79 1018.5
20260507031028 36 177 0.0 0.0 0.00 0.35 0.35 78 1018.5
20260507030526 36 177 0.0 0.0 0.00 0.35 0.35 78 1018.4
20260507030012 36 177 0.0 0.0 0.00 0.35 0.35 78 1018.4
20260507025507 36 177 0.0 0.0 0.00 0.35 0.35 78 1018.3
20260507025008 36 177 0.0 0.0 0.00 0.35 0.35 77 1018.2
20260507024507 37 177 0.0 2.0 0.00 0.35 0.35 76 1018.2
20260507024008 37 177 0.0 2.0 0.00 0.35 0.35 76 1018.2
20260507023511 37 177 0.0 4.0 0.00 0.35 0.35 75 1018.1
20260507023009 37 176 0.0 4.0 0.00 0.35 0.35 75 1018.1
20260507022513 37 177 0.0 3.0 0.00 0.35 0.35 75 1018.1
20260507022012 37 177 0.0 4.0 0.00 0.35 0.35 75 1018.0
20260507021507 38 177 0.0 4.0 0.00 0.35 0.35 74 1017.9
20260507021009 38 177 1.0 4.0 0.00 0.35 0.35 74 1018.0
20260507020508 38 177 1.0 4.0 0.00 0.35 0.35 74 1018.0
20260507020010 38 177 1.0 3.0 0.00 0.35 0.35 74 1017.9
20260507015507 38 178 1.0 4.0 0.00 0.37 0.35 74 1017.9
20260507015007 39 178 1.0 4.0 0.00 0.37 0.35 74 1017.8
20260507014516 39 177 2.0 0.0 0.00 0.00 0.35 73 1017.9
20260507014011 39 179 2.0 4.0 0.00 0.37 0.35 73 1017.9
20260507013513 39 181 2.0 8.0 0.00 0.37 0.35 72 1017.9
20260507013019 39 181 3.0 8.0 0.00 0.37 0.35 71 1017.8
20260507012511 40 180 2.0 7.0 0.00 0.37 0.35 71 1017.9
20260507012011 40 186 3.0 8.0 0.00 0.37 0.35 70 1018.0
20260507011517 40 184 3.0 8.0 0.00 0.37 0.35 69 1018.0
20260507011010 40 142 3.0 7.0 0.00 0.37 0.35 69 1018.0
20260507010512 40 179 3.0 9.0 0.00 0.37 0.35 69 1018.0
20260507010013 40 188 4.0 9.0 0.00 0.37 0.35 69 1018.1
20260507005513 41 208 4.0 7.0 0.00 0.39 0.35 69 1018.2
20260507005013 41 176 2.0 7.0 0.00 0.39 0.35 69 1018.2
20260507004529 41 189 3.0 7.0 0.00 0.39 0.35 69 1018.2
20260507004013 41 172 2.0 6.0 0.00 0.39 0.35 69 1018.2
20260507003513 41 126 3.0 6.0 0.00 0.39 0.35 68 1018.3
20260507003016 41 143 2.0 7.0 0.00 0.39 0.35 69 1018.3
20260507002516 41 153 3.0 9.0 0.00 0.39 0.35 68 1018.4
20260507002016 41 193 4.0 9.0 0.00 0.39 0.35 69 1018.4
20260507001515 41 184 4.0 8.0 0.00 0.39 0.35 68 1018.5
20260507001015 41 184 3.0 7.0 0.00 0.39 0.35 69 1018.6
20260507000514 41 168 2.0 7.0 0.00 0.39 0.35 68 1018.6
20260507000022 41 171 3.0 6.0 0.00 0.39 0.35 68 1018.6
20260506235515 41 169 2.0 6.0 0.00 0.39 0.35 70 1018.7
20260506235013 41 193 1.0 8.0 0.00 0.39 0.35 70 1018.8
20260506234525 41 197 4.0 8.0 0.00 0.39 0.35 70 1018.8
20260506234015 40 180 2.0 8.0 0.00 0.39 0.35 71 1018.8
20260506233513 40 181 2.0 8.0 0.00 0.39 0.35 71 1018.8
20260506233014 40 183 3.0 8.0 0.00 0.39 0.35 71 1018.7
20260506232513 40 198 4.0 8.0 0.00 0.39 0.35 71 1018.8
20260506232013 40 188 5.0 8.0 0.00 0.39 0.35 71 1018.7
20260506231529 39 210 4.0 8.0 0.00 0.39 0.35 72 1018.7
20260506231015 39 172 4.0 8.0 0.00 0.39 0.35 73 1018.8
20260506230515 39 181 3.0 8.0 0.00 0.39 0.35 73 1018.8
20260506230015 39 200 4.0 7.0 0.00 0.39 0.35 75 1018.8
20260506225517 39 202 5.0 8.0 0.00 0.44 0.35 72 1018.9
20260506225016 38 177 4.0 8.0 0.00 0.44 0.35 73 1019.0
20260506224514 39 182 3.0 7.0 0.00 0.44 0.35 74 1019.0
20260506224013 39 195 3.0 6.0 0.00 0.44 0.35 77 1019.0
20260506223513 38 207 2.0 6.0 0.00 0.44 0.35 76 1019.1
20260506223024 38 206 3.0 7.0 0.00 0.44 0.35 75 1019.1
20260506222516 38 210 3.0 8.0 0.00 0.44 0.35 76 1019.2
20260506222016 38 210 5.0 8.0 0.00 0.44 0.35 76 1019.3
20260506221516 37 235 3.0 6.0 0.00 0.44 0.35 73 1019.4
20260506221019 38 231 3.0 6.0 0.00 0.44 0.35 73 1019.4
20260506220518 39 241 4.0 6.0 0.00 0.44 0.35 75 1019.4
20260506220019 38 239 1.0 6.0 0.00 0.44 0.35 78 1019.4
20260506215518 37 237 1.0 6.0 0.00 0.48 0.35 76 1019.6
20260506215015 37 232 1.0 6.0 0.00 0.48 0.35 77 1019.6
20260506214518 37 233 2.0 6.0 0.00 0.48 0.35 77 1019.6
20260506214018 37 232 3.0 6.0 0.00 0.48 0.35 77 1019.9
20260506213520 37 234 3.0 7.0 0.00 0.48 0.35 79 1019.8
20260506213018 37 238 3.0 7.0 0.00 0.48 0.35 78 1019.7
20260506212518 37 257 1.0 5.0 0.00 0.48 0.35 78 1019.8
20260506212017 37 262 3.0 5.0 0.00 0.48 0.35 77 1019.8
20260506211531 37 272 2.0 6.0 0.00 0.48 0.35 75 1019.9
20260506211021 37 288 2.0 6.0 0.00 0.48 0.35 76 1019.9
20260506210521 37 302 0.0 4.0 0.00 0.48 0.35 75 1019.9
20260506210025 37 302 0.0 4.0 0.00 0.48 0.35 77 1020.0
20260506205522 36 303 0.0 6.0 0.00 0.53 0.35 76 1020.0
20260506205020 36 303 1.0 6.0 0.00 0.53 0.35 77 1020.2
20260506204520 36 288 2.0 5.0 0.00 0.53 0.35 78 1020.3
20260506204020 36 281 1.0 5.0 0.00 0.53 0.35 77 1020.4
20260506203521 36 283 0.0 4.0 0.00 0.53 0.35 78 1020.4
20260506203028 36 284 3.0 4.0 0.00 0.53 0.35 79 1020.4
20260506202524 37 285 0.0 0.0 0.00 0.53 0.35 78 1020.5
20260506202024 37 285 0.0 4.0 0.01 0.53 0.35 79 1020.5
20260506201531 36 285 1.0 4.0 0.01 0.53 0.35 79 1020.5
20260506201021 37 285 2.0 4.0 0.01 0.53 0.35 77 1020.5
20260506200520 39 285 0.0 3.0 0.02 0.53 0.35 79 1020.5
20260506200024 38 285 1.0 3.0 0.02 0.53 0.35 77 1020.5
20260506195524 38 285 0.0 3.0 0.02 0.53 0.35 80 1020.6
20260506195023 38 284 1.0 3.0 0.03 0.53 0.35 81 1020.6
20260506194528 38 284 0.0 2.0 0.03 0.53 0.35 83 1020.6
20260506194026 37 284 0.0 4.0 0.04 0.53 0.35 81 1020.7
20260506193522 37 284 0.0 4.0 0.04 0.53 0.35 84 1020.8
20260506193024 37 304 2.0 4.0 0.05 0.53 0.35 83 1020.8